Regional Weather Roundup
Issued by NWS

Home | Current Version | Previous Version | Text Only | Print | Product List | Glossary Off
Versions: 1 2 3 4 5 6 7 8 9 10 11 12 13 14 15 16 17 18 19 20 21 22 23 24 25 26 27 28 29 30 31 32 33 34 35 36 37 38 39 40 41 42 43 44 45 46 47 48 49 50

000
ASUS43 KOAX 071702
RWRNE

WEATHER ROUNDUP FOR NEBRASKA
NATIONAL WEATHER SERVICE OMAHA NE
1100 AM CST WED DEC 07 2016

NOTES: SATELLITE DATA IS BEING USED TO AUGMENT CLOUD COVER ABOVE
       12000 FEET.
       "FAIR" INDICATES FEW OR NO CLOUDS BELOW 12,000 FEET WITH NO
       SIGNIFICANT WEATHER AND/OR OBSTRUCTIONS TO VISIBILITY.

  * THESE STATIONS DO NOT REPORT WEATHER SUCH AS RAIN...SNOW OR FOG.

NEZ001>004-019>022-054>056-071800-
NEBRASKA PANHANDLE

CITY           SKY/WX    TMP DP  RH WIND       PRES   REMARKS
SCOTTSBLUFF    LGT SNOW  10   1  67 NW16      30.30R WCI  -7
ALLIANCE       CLOUDY     9   1  70 N9        30.27R WCI  -4
CHADRON        CLOUDY     8  -3  61 NW20G28   30.35R WCI -11
KIMBALL        CLOUDY     8   2  79 NW16      30.22R HAZE    WCI -10
SIDNEY         LGT SNOW   9   2  73 N17       30.26R WCI  -9
$$

NEZ057>060-069>072-079>082-071800-
SOUTHWEST NEBRASKA

CITY           SKY/WX    TMP DP  RH WIND       PRES   REMARKS
NORTH PLATTE   LGT SNOW  14   6  70 N13       30.34R WCI   0
IMPERIAL       LGT SNOW  13   7  77 N15       30.32R VSB 1   WCI  -3
LEXINGTON      CLOUDY    18   6  58 N12       30.34R WCI   6
MCCOOK         LGT SNOW  15   9  76 N14       30.34R WCI   0
OGALLALA       LGT SNOW  16   9  74 N9        30.31R WCI   5
$$

NEZ005>010-023>029-035>040-094-071800-
NORTH CENTRAL NEBRASKA

CITY           SKY/WX    TMP DP  RH WIND       PRES   REMARKS
VALENTINE      CLOUDY     8  -4  58 NW18G31   30.33R WCI -11
AINSWORTH      CLOUDY     9  -1  62 NW16G23   30.32R WCI  -8
BROKEN BOW     CLOUDY    16   2  54 NW20      30.32R WCI  -1
O`NEILL        CLOUDY    13   1  59 NW17G25   30.32R WCI  -4
ORD            CLOUDY    16  -1  47 NW16      30.33R WCI   1
THEDFORD       CLOUDY    15   1  53 N23G29    30.31S WCI  -4
$$

NEZ041-046>049-061>064-073>077-083>087-071800-
SOUTH CENTRAL NEBRASKA

CITY           SKY/WX    TMP DP  RH WIND       PRES   REMARKS
GRAND ISLAND   CLOUDY    18   4  54 NW13      30.35R WCI   5
AURORA         CLOUDY    19   4  53 NW15      30.34S WCI   4
HASTINGS       CLOUDY    19   4  51 NW13      30.35R WCI   6
HEBRON         CLOUDY    21   7  53 NW8       30.37R WCI  12
HOLDREGE       LGT SNOW  16  10  77 N12       30.34R WCI   3
KEARNEY *      CLOUDY    18   1  49 NW13      30.35R WCI   4
YORK           PTSUNNY   19   7  58 NW16      30.34S WCI   5
$$

NEZ011>018-030>034-042>045-071800-
NORTHEAST NEBRASKA

CITY           SKY/WX    TMP DP  RH WIND       PRES   REMARKS
NORFOLK        MOSUNNY   15   2  56 NW21      30.30R WCI  -2
ALBION         CLOUDY    15   2  55 NW17      30.32R WCI  -1
BLAIR          CLOUDY    19   9  65 W15       30.30S WCI   4
FREMONT        CLOUDY    19   8  61 W14       30.33S WCI   6
TEKAMAH        CLOUDY    19   8  62 NW18      30.33R WCI   4
WAYNE          PTSUNNY   17   6  60 NW15      30.30R WCI   3
$$

NEZ050>053-065>068-078-088>093-071800-
SOUTHEAST NEBRASKA

CITY           SKY/WX    TMP DP  RH WIND       PRES   REMARKS
LINCOLN        CLOUDY    21   6  52 NW13      30.37R WCI   9
OMAHA EPPLEY   CLOUDY    19   7  59 W13       30.33S WCI   6
BEATRICE       CLOUDY    23  10  56 NW15      30.35R WCI  10
FALLS CITY     CLOUDY    23  10  57 NW12      30.35R WCI  12
NEBRASKA CITY  CLOUDY    22   6  50 NW13      30.32S WCI  10
PLATTSMOUTH    CLOUDY    20   6  54 W15       30.32S WCI   7
$$

NEZ044-045-051>053-067-071800-
OMAHA AREA

CITY           SKY/WX    TMP DP  RH WIND       PRES   REMARKS
OMAHA EPPLEY   CLOUDY    19   7  59 W13       30.33S WCI   6
BLAIR          CLOUDY    19   9  65 W15       30.30S WCI   4
FREMONT        CLOUDY    19   8  61 W14       30.33S WCI   6
MILLARD        CLOUDY    20   8  58 W13G18    30.34R WCI   7
OFFUTT AFB     CLOUDY    20   8  59 NW13      30.33R WCI   7
PLATTSMOUTH    CLOUDY    20   6  54 W15       30.32S WCI   7
WAHOO          CLOUDY    20   7  58 NW12      30.34S WCI   8
$$




USA.gov is the U.S. government's official web portal to all federal, state and local government web resources and services.